This is the latest recevied weather packets stored in our database for station/object N7CEE-2. If no packets are shown the sender has not sent any weather packets the latest 10 day(s).
| Time | Temp. | Humidity | Pressure | Rain* | Wind** | Luminosity | Snow |
|---|---|---|---|---|---|---|---|
| 1777327403 | 26.11° C | 22% | 1014 hPa | 0 mm | - | 752 W/m² | - |
| 1777327101 | 26.11° C | 22% | 1014.1 hPa | 0 mm | - | 750 W/m² | - |
| 1777326797 | 25.56° C | 22% | 1014 hPa | 0 mm | - | 770 W/m² | - |
| 1777326494 | 25° C | 22% | 1014.5 hPa | 0 mm | - | 798 W/m² | - |
| 1777326192 | 25° C | 22% | 1014.3 hPa | 0 mm | - | 790 W/m² | - |
| 1777325890 | 25° C | 22% | 1014.5 hPa | 0 mm | - | 808 W/m² | - |
| 1777325588 | 25° C | 22% | 1014.4 hPa | 0 mm | - | 824 W/m² | - |
| 1777325285 | 25.56° C | 22% | 1014.6 hPa | 0 mm | - | 836 W/m² | - |
| 1777324983 | 25° C | 23% | 1014.6 hPa | 0 mm | - | 845 W/m² | - |
| 1777324679 | 25° C | 22% | 1014.5 hPa | 0 mm | - | 839 W/m² | - |
| 1777324377 | 25° C | 22% | 1014.7 hPa | 0 mm | - | 862 W/m² | - |
| 1777324074 | 25° C | 22% | 1014.5 hPa | 0 mm | - | 870 W/m² | - |
| 1777323771 | 24.44° C | 22% | 1014.8 hPa | 0 mm | - | 877 W/m² | - |
| 1777323468 | 25.56° C | 22% | 1014.7 hPa | 0 mm | - | 889 W/m² | - |
| 1777323166 | 25.56° C | 21% | 1014.9 hPa | 0 mm | - | 896 W/m² | - |
| 1777322863 | 25° C | 22% | 1014.7 hPa | 0 mm | - | 904 W/m² | - |
| 1777322562 | 25° C | 22% | 1014.7 hPa | 0 mm | - | 911 W/m² | - |
| 1777322258 | 25° C | 21% | 1015 hPa | 0 mm | - | 915 W/m² | - |
| 1777321955 | 24.44° C | 23% | 1015 hPa | 0 mm | - | 925 W/m² | - |
| 1777321652 | 24.44° C | 23% | 1015.1 hPa | 0 mm | - | 932 W/m² | - |
| 1777321348 | 25° C | 22% | 1015.2 hPa | 0 mm | - | 939 W/m² | - |
| 1777321045 | 25° C | 23% | 1014.9 hPa | 0 mm | - | 947 W/m² | - |
| 1777320744 | 23.89° C | 23% | 1015.3 hPa | 0 mm | - | 951 W/m² | - |
| 1777320440 | 24.44° C | 23% | 1015.1 hPa | 0 mm | - | 957 W/m² | - |
| 1777320137 | 25° C | 22% | 1015.3 hPa | 0 mm | - | 960 W/m² | - |
* Rain latest hour (hover to see other rain measurements)
** Current wind speed in m/s (hover to see current wind gust speed)